This is the latest recevied weather packets stored in our database for station/object K5OLV. If no packets are shown the sender has not sent any weather packets the latest 10 day(s).
| Time | Temp. | Humidity | Pressure | Rain* | Wind** | Luminosity | Snow |
|---|---|---|---|---|---|---|---|
| 1777833078 | 16.67° C | 50% | 1017.4 hPa | 0 mm | - | 715 W/m² | - |
| 1777832777 | 16.67° C | 56% | 1017.5 hPa | 0 mm | - | 725 W/m² | - |
| 1777832475 | 16.11° C | 59% | 1017.5 hPa | 0 mm | - | 724 W/m² | - |
| 1777832171 | 15.56° C | 53% | 1017.5 hPa | 0 mm | - | 714 W/m² | - |
| 1777831868 | 16.11° C | 55% | 1017.5 hPa | 0 mm | - | 732 W/m² | - |
| 1777831565 | 16.11° C | 53% | 1017.8 hPa | 0 mm | - | 724 W/m² | - |
| 1777831263 | 16.67° C | 53% | 1017.7 hPa | 0 mm | - | 727 W/m² | - |
| 1777830959 | 15.56° C | 52% | 1017.8 hPa | 0 mm | - | 737 W/m² | - |
| 1777830657 | 15.56° C | 53% | 1017.9 hPa | 0 mm | - | 730 W/m² | - |
| 1777830353 | 15° C | 53% | 1017.8 hPa | 0 mm | - | 715 W/m² | - |
| 1777830050 | 16.67° C | 50% | 1018 hPa | 0 mm | - | 724 W/m² | - |
| 1777829745 | 15° C | 55% | 1018.1 hPa | 0 mm | - | 728 W/m² | - |
| 1777829442 | 15° C | 56% | 1018 hPa | 0 mm | - | 721 W/m² | - |
| 1777829139 | 15° C | 56% | 1018.1 hPa | 0 mm | - | 709 W/m² | - |
| 1777828836 | 15° C | 53% | 1018.2 hPa | 0 mm | - | 715 W/m² | - |
| 1777828533 | 15° C | 53% | 1018.3 hPa | 0 mm | - | 726 W/m² | - |
| 1777828230 | 15° C | 48% | 1018.4 hPa | 0 mm | - | 734 W/m² | - |
| 1777827926 | 14.44° C | 54% | 1018.4 hPa | 0 mm | - | 737 W/m² | - |
| 1777827624 | 15° C | 53% | 1018.5 hPa | 0 mm | - | 697 W/m² | - |
| 1777827321 | 14.44° C | 53% | 1018.7 hPa | 0 mm | - | 667 W/m² | - |
| 1777827017 | 14.44° C | 59% | 1018.6 hPa | 0 mm | - | 736 W/m² | - |
| 1777826715 | 15° C | 56% | 1018.9 hPa | 0 mm | - | 729 W/m² | - |
| 1777826411 | 14.44° C | 57% | 1018.7 hPa | 0 mm | - | 714 W/m² | - |
| 1777826108 | 14.44° C | 58% | 1018.7 hPa | 0 mm | - | 707 W/m² | - |
| 1777825805 | 14.44° C | 59% | 1018.8 hPa | 0 mm | - | 675 W/m² | - |
* Rain latest hour (hover to see other rain measurements)
** Current wind speed in m/s (hover to see current wind gust speed)